TimeMDT,TemperatureF,Dew PointF,Humidity,Sea Level PressureIn,VisibilityMPH,Wind Direction,Wind SpeedMPH,Gust SpeedMPH,PrecipitationIn,Events,Conditions,WindDirDegrees,DateUTC
12:15 AM,69.8,62.6,78,30.22,10.0,Calm,Calm,-,N/A,,Unknown,0,2013-07-02 06:15:00
12:35 AM,68.0,60.8,78,30.22,10.0,Calm,Calm,-,N/A,,Unknown,0,2013-07-02 06:35:00
12:55 AM,68.0,59.0,73,30.23,10.0,Calm,Calm,-,N/A,,Unknown,0,2013-07-02 06:55:00
1:15 AM,68.0,59.0,73,30.22,10.0,Calm,Calm,-,N/A,,Unknown,0,2013-07-02 07:15:00
1:35 AM,68.0,60.8,78,30.22,10.0,Calm,Calm,-,N/A,,Unknown,0,2013-07-02 07:35:00
1:55 AM,68.0,62.6,83,30.22,10.0,Calm,Calm,-,N/A,,Unknown,0,2013-07-02 07:55:00
2:15 AM,68.0,62.6,83,30.23,10.0,Calm,Calm,-,N/A,,Unknown,0,2013-07-02 08:15:00
2:35 AM,68.0,62.6,83,30.23,10.0,Calm,Calm,-,N/A,,Unknown,0,2013-07-02 08:35:00
2:55 AM,66.2,62.6,88,30.23,10.0,Calm,Calm,-,N/A,,Unknown,0,2013-07-02 08:55:00
3:15 AM,66.2,62.6,88,30.23,10.0,Calm,Calm,-,N/A,,Unknown,0,2013-07-02 09:15:00
3:35 AM,66.2,60.8,83,30.23,10.0,Calm,Calm,-,N/A,,Unknown,0,2013-07-02 09:35:00
3:55 AM,64.4,59.0,83,30.23,10.0,Calm,Calm,-,N/A,,Unknown,0,2013-07-02 09:55:00
4:15 AM,64.4,59.0,83,30.23,10.0,Calm,Calm,-,N/A,,Unknown,0,2013-07-02 10:15:00
4:35 AM,64.4,59.0,83,30.23,10.0,Calm,Calm,-,N/A,,Unknown,0,2013-07-02 10:35:00
4:55 AM,64.4,59.0,83,30.22,10.0,Calm,Calm,-,N/A,,Unknown,0,2013-07-02 10:55:00
5:50 AM,64.4,62.6,94,30.23,8.0,NNE,4.6,-,N/A,,Mostly Cloudy,20,2013-07-02 11:50:00
6:50 AM,66.2,51.8,60,30.24,10.0,NE,6.9,-,N/A,,Scattered Clouds,40,2013-07-02 12:50:00
7:50 AM,66.2,50.0,56,30.26,10.0,ENE,8.1,16.1,N/A,,Mostly Cloudy,60,2013-07-02 13:50:00
8:50 AM,66.2,50.0,56,30.27,10.0,East,10.4,-,N/A,,Scattered Clouds,80,2013-07-02 14:50:00
9:50 AM,62.6,55.4,77,30.28,10.0,NE,9.2,16.1,N/A,,Mostly Cloudy,40,2013-07-02 15:50:00
10:50 AM,68.0,53.6,60,30.28,10.0,NE,9.2,-,N/A,,Mostly Cloudy,50,2013-07-02 16:50:00
11:50 AM,68.0,51.8,56,30.26,10.0,East,4.6,-,N/A,,Mostly Cloudy,100,2013-07-02 17:50:00
12:50 PM,73.4,48.2,41,30.24,10.0,East,6.9,-,N/A,,Partly Cloudy,100,2013-07-02 18:50:00
1:50 PM,77.0,46.4,34,30.21,10.0,East,8.1,-,N/A,,Clear,90,2013-07-02 19:50:00
2:50 PM,80.6,46.4,30,30.19,10.0,NE,8.1,-,N/A,,Clear,40,2013-07-02 20:50:00
3:50 PM,80.6,46.4,30,30.16,10.0,NE,9.2,-,N/A,,Clear,50,2013-07-02 21:50:00
4:50 PM,80.6,44.6,28,30.13,10.0,East,10.4,-,N/A,,Clear,90,2013-07-02 22:50:00
5:45 PM,80.6,44.6,28,30.12,10.0,East,11.5,-,N/A,,Clear,80,2013-07-02 23:45:00
6:15 PM,78.8,44.6,30,30.13,10.0,ENE,10.4,-,N/A,,Unknown,70,2013-07-03 00:15:00
6:35 PM,78.8,44.6,30,30.13,10.0,ENE,6.9,-,N/A,,Unknown,70,2013-07-03 00:35:00
6:55 PM,77.0,44.6,32,30.14,10.0,ENE,6.9,-,N/A,,Unknown,60,2013-07-03 00:55:00
7:15 PM,77.0,44.6,32,30.14,10.0,East,4.6,-,N/A,,Unknown,80,2013-07-03 01:15:00
7:35 PM,77.0,44.6,32,30.14,10.0,Calm,Calm,-,N/A,,Unknown,0,2013-07-03 01:35:00
7:55 PM,77.0,46.4,34,30.15,10.0,Calm,Calm,-,N/A,,Unknown,0,2013-07-03 01:55:00
8:15 PM,75.2,48.2,38,30.14,10.0,Calm,Calm,-,N/A,,Unknown,0,2013-07-03 02:15:00
8:35 PM,73.4,48.2,41,30.15,10.0,Calm,Calm,-,N/A,,Unknown,0,2013-07-03 02:35:00
8:55 PM,73.4,50.0,44,30.15,10.0,Calm,Calm,-,N/A,,Unknown,0,2013-07-03 02:55:00
9:15 PM,71.6,50.0,46,30.16,10.0,Calm,Calm,-,N/A,,Unknown,0,2013-07-03 03:15:00
9:35 PM,71.6,51.8,50,30.16,10.0,Calm,Calm,-,N/A,,Unknown,0,2013-07-03 03:35:00
9:55 PM,71.6,51.8,50,30.17,10.0,Calm,Calm,-,N/A,,Unknown,0,2013-07-03 03:55:00
10:15 PM,69.8,53.6,56,30.17,10.0,Calm,Calm,-,N/A,,Unknown,0,2013-07-03 04:15:00
10:35 PM,68.0,53.6,60,30.18,10.0,Calm,Calm,-,N/A,,Unknown,0,2013-07-03 04:35:00
10:55 PM,68.0,53.6,60,30.19,10.0,Calm,Calm,-,N/A,,Unknown,0,2013-07-03 04:55:00
11:15 PM,66.2,53.6,64,30.19,10.0,Calm,Calm,-,N/A,,Unknown,0,2013-07-03 05:15:00
11:35 PM,66.2,53.6,64,30.19,10.0,Calm,Calm,-,N/A,,Clear,0,2013-07-03 05:35:00
11:55 PM,64.4,53.6,68,30.19,10.0,Calm,Calm,-,N/A,,Clear,0,2013-07-03 05:55:00